Weather History for Kivalina, AK

Change the Weather History Date:

Thursday, May 16, 2013

  Actual Average Record
Temperature  
Mean Temperature 17 °F -  
Max Temperature 24 °F - - ()
Min Temperature 10 °F - - ()
Degree Days  
Heating Degree Days 48    
Moisture  
Dew Point 16 °F    
Average Humidity 92    
Maximum Humidity 100    
Minimum Humidity 84    
Precipitation  
Precipitation 0.22 in - - ()
Sea Level Pressure  
Sea Level Pressure 29.28 in    
Wind  
Wind Speed 21 mph (SSE)    
Max Wind Speed 30 mph    
Max Gust Speed 39 mph    
Visibility 1 miles    
Events Fog , Snow    
T = Trace of Precipitation, MM = Missing Value Source: NWS Daily Summary

Daily Weather History Graph

Daily Weather History Graph

Search for Another Location

Airport:

Trip Planner

Search our weather history database for the weather conditions in past years. The results will help you decide how hot, cold, wet, or windy it might be!

Date:

Astronomy

May. 16, 2013 Rise Set
Actual Time 4:42 AM AKDT 1:11 AM AKDT
Civil Twilight Sun does not rise Sun does not rise
Nautical Twilight Sun does not rise Sun does not rise
Astronomical Twilight Sun does not rise Sun does not rise
Moon 11:56 AM AKDT (5/16) 4:14 AM AKDT (5/16)
Length of Visible Light 24h 00m
Length of Day
20h 29m
Waxing Crescent, 37% of the Moon is Illuminated
May 16
Waxing Crescent
May 17
First Quarter
May 24
Full
May 31
Last Quarter
Jun 8
New

Hourly Weather History & Observations

Time (AKDT) Temp. Windchill Dew Point Humidity Pressure Visibility Wind Dir Wind Speed Gust Speed Precip Events Conditions
12:31 AM 24.8 °F 10.0 °F 24.8 °F 100% 29.33 in 0.5 mi SE 21.9 mph 28.8 mph 0.00 in Fog , Snow Snow
12:40 AM 24.8 °F 10.0 °F 24.8 °F 100% 29.33 in 0.8 mi SE 21.9 mph - 0.00 in Snow Light Snow
12:53 AM 24.1 °F 8.7 °F 24.1 °F 100% 29.32 in 0.5 mi SE 23.0 mph 29.9 mph 0.00 in Fog , Snow Light Snow
1:53 AM 24.1 °F 9.4 °F 24.1 °F 100% 29.31 in 0.5 mi SE 20.7 mph - 0.00 in Fog , Snow Light Snow
2:08 AM 24.8 °F 10.0 °F 23.0 °F 93% 29.30 in 1.0 mi SE 21.9 mph - 0.00 in Snow Light Snow
2:33 AM 24.8 °F 10.7 °F 23.0 °F 93% 29.30 in 0.8 mi SE 19.6 mph 28.8 mph 0.00 in Snow Light Snow
2:53 AM 24.1 °F 10.1 °F 23.0 °F 96% 29.29 in 0.8 mi SE 18.4 mph 26.5 mph 0.00 in Snow Light Snow
3:02 AM 24.8 °F 10.7 °F 23.0 °F 93% 29.29 in 0.8 mi SE 19.6 mph 25.3 mph 0.00 in Snow Light Snow
3:12 AM 24.8 °F 11.1 °F 23.0 °F 93% 29.28 in 1.0 mi SE 18.4 mph 25.3 mph 0.00 in Snow Light Snow
3:19 AM 24.8 °F 11.1 °F 23.0 °F 93% 29.28 in 0.8 mi SE 18.4 mph - 0.00 in Snow Light Snow
3:26 AM 24.8 °F 10.7 °F 23.0 °F 93% 29.28 in 1.0 mi SE 19.6 mph - 0.00 in Snow Light Snow
3:37 AM 24.8 °F 11.5 °F 23.0 °F 93% 29.28 in 0.8 mi SE 17.3 mph - 0.00 in Snow Light Snow
3:53 AM 23.0 °F 8.7 °F 23.0 °F 100% 29.27 in 1.0 mi ESE 18.4 mph - 0.00 in Snow Light Snow
4:07 AM 23.0 °F 8.3 °F 23.0 °F 100% 29.27 in 0.8 mi ESE 19.6 mph 24.2 mph 0.00 in Snow Light Snow
4:53 AM 23.0 °F 8.0 °F 21.9 °F 96% 29.26 in 0.2 mi ESE 20.7 mph 25.3 mph 0.00 in Fog , Snow Snow
5:04 AM 23.0 °F 8.3 °F 21.2 °F 93% 29.25 in 0.5 mi ESE 19.6 mph 26.5 mph 0.00 in Fog , Snow Light Snow
5:30 AM 23.0 °F 8.3 °F 21.2 °F 93% 29.24 in 0.8 mi ESE 19.6 mph - 0.00 in Snow Light Snow
5:46 AM 23.0 °F 8.0 °F 21.2 °F 93% 29.24 in 1.2 mi ESE 20.7 mph - 0.00 in Snow Light Snow
5:53 AM 21.9 °F 7.3 °F 21.9 °F 100% 29.24 in 2.0 mi ESE 18.4 mph - 0.00 in Snow Light Snow
6:16 AM 23.0 °F 8.7 °F 21.2 °F 93% 29.23 in 1.8 mi ESE 18.4 mph - 0.00 in Snow Light Snow
6:31 AM 23.0 °F 8.7 °F 21.2 °F 93% 29.22 in 3.0 mi ESE 18.4 mph - 0.00 in Snow Light Snow
6:42 AM 23.0 °F 8.7 °F 21.2 °F 93% 29.22 in 2.0 mi ESE 18.4 mph - 0.00 in Snow Light Snow
6:49 AM 23.0 °F 9.2 °F 21.2 °F 93% 29.21 in 1.2 mi ESE 17.3 mph - 0.00 in Snow Light Snow
6:53 AM 23.0 °F 8.7 °F 23.0 °F 100% 29.21 in 1.5 mi ESE 18.4 mph - 0.00 in Snow Light Snow
7:22 AM 24.8 °F 10.7 °F 23.0 °F 93% 29.20 in 3.0 mi ESE 19.6 mph - 0.00 in Snow Light Snow
7:53 AM 24.1 °F 10.6 °F 23.0 °F 96% 29.19 in 3.0 mi East 17.3 mph - 0.00 in   Overcast
8:30 AM 24.8 °F 12.4 °F 21.2 °F 86% 29.18 in 2.5 mi East 15.0 mph - 0.00 in Snow Light Snow
8:35 AM 24.8 °F 11.9 °F 23.0 °F 93% 29.18 in 2.5 mi ESE 16.1 mph - 0.00 in Snow Light Snow
8:44 AM 21.2 °F 7.3 °F 19.4 °F 93% 29.18 in 1.0 mi SE 16.1 mph - 0.00 in Snow Light Snow
8:53 AM 19.9 °F 4.3 °F 18.0 °F 92% 29.18 in 1.2 mi SE 19.6 mph 24.2 mph 0.00 in Snow Light Snow
9:02 AM 19.4 °F 3.2 °F 17.6 °F 93% 29.17 in 2.0 mi SE 20.7 mph 26.5 mph 0.00 in   Overcast
9:10 AM 19.4 °F 3.2 °F 17.6 °F 93% 29.17 in 1.2 mi SE 20.7 mph 27.6 mph 0.00 in   Overcast
9:34 AM 19.4 °F 2.8 °F 17.6 °F 93% 29.17 in 1.8 mi SE 21.9 mph - 0.00 in Snow Light Snow
9:53 AM 17.1 °F 0.6 °F 16.0 °F 96% 29.18 in 2.5 mi SE 19.6 mph - 0.00 in Snow Light Snow
10:12 AM 15.8 °F -1.5 °F 14.0 °F 93% 29.18 in 1.8 mi SSE 20.7 mph - 0.00 in Snow Light Snow
10:40 AM 15.8 °F -1.9 °F 12.2 °F 86% 29.19 in 1.8 mi SSE 21.9 mph - 0.00 in Snow Light Snow
10:53 AM 15.1 °F -2.5 °F 12.0 °F 88% 29.20 in 1.5 mi SSE 20.7 mph - 0.00 in Snow Light Snow
11:00 AM 14.0 °F -3.9 °F 12.2 °F 93% 29.20 in 1.5 mi SSE 20.7 mph - 0.00 in Snow Light Snow
11:05 AM 14.0 °F -4.3 °F 12.2 °F 93% 29.20 in 2.0 mi SSE 21.9 mph - 0.00 in Snow Light Snow
11:16 AM 14.0 °F -3.0 °F 12.2 °F 93% 29.21 in 1.5 mi SE 18.4 mph - 0.00 in Snow Light Snow
11:23 AM 14.0 °F -3.9 °F 12.2 °F 93% 29.20 in 1.5 mi SSE 20.7 mph - 0.00 in Snow Light Snow
11:53 AM 14.0 °F -4.3 °F 12.0 °F 92% 29.21 in 1.2 mi SSE 21.9 mph - 0.00 in Snow Light Snow
12:15 PM 14.0 °F -5.1 °F 12.2 °F 93% 29.21 in 2.0 mi SSE 24.2 mph - 0.00 in Snow Light Snow
12:22 PM 15.8 °F -1.9 °F 12.2 °F 86% 29.22 in 1.2 mi SSE 21.9 mph - 0.00 in Snow Light Snow
12:50 PM 15.8 °F -1.9 °F 12.2 °F 86% 29.22 in 1.5 mi SE 21.9 mph - 0.00 in Snow Light Snow
12:53 PM 15.1 °F -3.3 °F 12.0 °F 88% 29.23 in 1.5 mi SE 23.0 mph - 0.00 in Snow Light Snow
1:28 PM 15.8 °F -1.9 °F 12.2 °F 86% 29.23 in 0.8 mi SE 21.9 mph - 0.00 in Snow Light Snow
1:53 PM 16.0 °F -2.1 °F 14.0 °F 92% 29.24 in 1.0 mi SSE 23.0 mph - 0.00 in Snow Light Snow
2:26 PM 15.8 °F -1.9 °F 14.0 °F 93% 29.25 in 2.0 mi SSE 21.9 mph - 0.00 in Snow Light Snow
2:45 PM 15.8 °F -1.9 °F 14.0 °F 93% 29.25 in 1.5 mi SSE 21.9 mph - 0.00 in Snow Light Snow
2:53 PM 16.0 °F -1.7 °F 12.9 °F 88% 29.26 in 1.0 mi SSE 21.9 mph - 0.00 in Snow Light Snow
3:08 PM 15.8 °F -1.9 °F 14.0 °F 93% 29.26 in 1.0 mi SSE 21.9 mph - 0.00 in Snow Light Snow
3:48 PM 15.8 °F -1.9 °F 14.0 °F 93% 29.27 in 0.8 mi South 21.9 mph - 0.00 in Snow Light Snow
3:53 PM 16.0 °F -1.3 °F 12.9 °F 88% 29.28 in 0.8 mi South 20.7 mph - 0.00 in Snow Light Snow
4:06 PM 15.8 °F -1.1 °F 12.2 °F 86% 29.28 in 1.0 mi South 19.6 mph - 0.00 in Snow Light Snow
4:31 PM 15.8 °F -1.1 °F 12.2 °F 86% 29.28 in 2.0 mi South 19.6 mph - 0.00 in Snow Light Snow
4:38 PM 15.8 °F -0.6 °F 14.0 °F 93% 29.29 in 1.0 mi South 18.4 mph - 0.00 in Snow Light Snow
4:46 PM 15.8 °F -0.6 °F 15.8 °F 100% 29.29 in 0.8 mi South 18.4 mph - 0.00 in Snow Light Snow
4:53 PM 16.0 °F -0.4 °F 15.1 °F 96% 29.29 in 0.5 mi SSW 18.4 mph - 0.00 in Fog , Snow Snow
5:42 PM 15.8 °F -1.9 °F 12.2 °F 86% 29.29 in 0.5 mi SW 21.9 mph - 0.01 in Fog , Snow Snow
5:53 PM 15.1 °F -2.5 °F 12.9 °F 91% 29.30 in 0.2 mi SW 20.7 mph - 0.01 in Fog , Snow Snow
6:06 PM 15.8 °F -2.7 °F 12.2 °F 86% 29.29 in 0.2 mi SW 24.2 mph 29.9 mph 0.00 in Fog , Snow Snow
6:15 PM 15.8 °F -2.7 °F 12.2 °F 86% 29.29 in 0.2 mi WSW 24.2 mph 33.4 mph 0.00 in Fog , Snow Snow
6:25 PM 15.8 °F -4.4 °F 12.2 °F 86% 29.30 in 0.2 mi West 29.9 mph 39.1 mph 0.03 in Fog , Snow Heavy Snow
6:53 PM 15.1 °F -5.0 °F 12.9 °F 91% 29.33 in 0.2 mi West 28.8 mph - 0.07 in Fog , Snow Heavy Snow
7:37 PM 12.2 °F -9.3 °F 10.4 °F 92% 29.36 in 0.2 mi West 29.9 mph 36.8 mph 0.07 in Fog , Snow Snow
7:53 PM 12.9 °F -8.3 °F 10.9 °F 92% 29.38 in 0.2 mi West 29.9 mph 38.0 mph 0.10 in Fog , Snow Snow
8:11 PM 12.2 °F -8.9 °F 10.4 °F 92% 29.39 in 0.2 mi West 28.8 mph 35.7 mph 0.01 in Fog , Snow Snow
8:53 PM 10.9 °F -8.8 °F 9.0 °F 92% 29.43 in 0.5 mi WNW 23.0 mph 33.4 mph 0.03 in Fog , Snow Light Snow
9:37 PM 10.4 °F -9.5 °F 8.6 °F 92% 29.46 in 1.0 mi West 23.0 mph - 0.01 in Snow Light Snow
9:53 PM 10.9 °F -8.3 °F 8.1 °F 88% 29.47 in 1.0 mi West 21.9 mph - 0.01 in Snow Light Snow
10:30 PM 10.4 °F -7.7 °F 6.8 °F 85% 29.49 in 2.0 mi West 18.4 mph - 0.00 in Snow Light Snow
10:39 PM 10.4 °F -6.6 °F 6.8 °F 85% 29.49 in 4.0 mi West 16.1 mph - 0.00 in   Mist
10:53 PM 10.9 °F -7.0 °F 7.0 °F 84% 29.50 in 5.0 mi West 18.4 mph - 0.00 in   Mist
11:06 PM 10.4 °F -7.7 °F 6.8 °F 85% 29.50 in 2.5 mi West 18.4 mph - 0.00 in Snow Light Snow
11:19 PM 10.4 °F -6.0 °F 6.8 °F 85% 29.51 in 4.0 mi West 15.0 mph - 0.00 in   Mist
11:53 PM 10.0 °F -2.9 °F 7.0 °F 87% 29.52 in 3.0 mi West 9.2 mph - 0.00 in Snow Light Snow